Dodge City, KS

9:44 AM CST on January 22, 2017 (GMT -0600)
Dodge City Regional

Weather History for KDDC - May, 2014

Change the Weather History Date:

Wednesday, May 7, 2014

  Actual Average Record
Temperature  
Mean Temperature 74 °F -  
Max Temperature 93 °F 75 °F 99 °F (1916)
Min Temperature 55 °F 49 °F 33 °F (1885)
Cooling Degree Days 9    
Growing Degree Days 24 (Base 50)    
Moisture  
Dew Point 32 °F    
Average Humidity 24    
Maximum Humidity 67    
Minimum Humidity 4    
Precipitation  
Precipitation 0.00 in - - ()
Sea Level Pressure  
Sea Level Pressure 29.50 in    
Wind  
Wind Speed 14 mph (SSW)    
Max Wind Speed 30 mph    
Max Gust Speed 37 mph    
Visibility 10 miles    
Events Rain , Thunderstorm    
Averages and records for this station are not official NWS values.
T = Trace of Precipitation, MM = Missing Value Source: NWS Daily Summary

Daily Weather History Graph

Daily Weather History Graph

Search for Another Location

Airport or City:

Trip Planner

Search our weather history database for the weather conditions in past years. The results will help you decide how hot, cold, wet, or windy it might be!

Date:

Astronomy

May. 07, 2014 Rise Set
Actual Time 6:37 AM CDT 8:35 PM CDT
Civil Twilight 6:08 AM CDT 9:04 PM CDT
Nautical Twilight 5:33 AM CDT 9:39 PM CDT
Astronomical Twilight 4:56 AM CDT 10:17 PM CDT
Moon 1:49 PM CDT (5/7) 2:29 AM CDT (5/7)
Length of Visible Light 14h 55m
Length of Day
13h 58m
First Quarter, 55% of the Moon is Illuminated
May 7
First Quarter
May 14
Full
May 21
Last Quarter
May 28
New
Jun 5
First Quarter

Hourly Weather History & Observations

Time (CDT) Temp. Dew Point Humidity Pressure Visibility Wind Dir Wind Speed Gust Speed Precip Events Conditions
12:52 AM 66.0 °F 37.0 °F 34% 29.45 in 10.0 mi SSW 5.8 mph - N/A   Clear
1:52 AM 64.0 °F 48.9 °F 58% 29.45 in 10.0 mi South 11.5 mph - N/A   Clear
2:52 AM 61.0 °F 50.0 °F 67% 29.44 in 10.0 mi South 11.5 mph - N/A   Clear
3:52 AM 57.2 °F 42.8 °F 59% 29.54 in 10.0 mi South 6.9 mph - N/A   Clear
4:52 AM 57.9 °F 25.0 °F 28% 29.46 in 10.0 mi SSW 11.5 mph - N/A   Clear
5:52 AM 59.0 °F 19.0 °F 21% 29.47 in 10.0 mi SW 10.4 mph - N/A   Clear
6:52 AM 57.2 °F 19.4 °F 23% 29.59 in 10.0 mi SW 11.5 mph - N/A   Clear
7:52 AM 61.0 °F 21.0 °F 21% 29.54 in 10.0 mi SW 17.3 mph 24.2 mph N/A   Clear
8:52 AM 66.0 °F 24.1 °F 20% 29.53 in 10.0 mi SW 16.1 mph - N/A   Clear
9:52 AM 73.9 °F 26.1 °F 17% 29.55 in 10.0 mi SW 17.3 mph - N/A   Clear
10:52 AM 79.0 °F 26.1 °F 14% 29.55 in 10.0 mi SW 12.7 mph - N/A   Clear
11:52 AM 84.9 °F 25.0 °F 11% 29.55 in 10.0 mi SW 10.4 mph - N/A   Clear
12:52 PM 90.0 °F 19.9 °F 8% 29.52 in 10.0 mi SSW 21.9 mph 29.9 mph N/A   Clear
1:52 PM 91.0 °F 19.9 °F 7% 29.50 in 10.0 mi SW 23.0 mph 34.5 mph N/A   Clear
2:52 PM 91.9 °F 24.1 °F 9% 29.49 in 10.0 mi SSW 29.9 mph 36.8 mph N/A   Clear
3:52 PM 91.0 °F 24.1 °F 9% 29.47 in 10.0 mi South 23.0 mph 34.5 mph N/A   Clear
4:52 PM 89.6 °F 24.8 °F 10% 29.54 in 10.0 mi South 17.3 mph 27.6 mph N/A   Clear
5:38 PM 84.9 °F 30.9 °F 14% 29.54 in 7.0 mi South 21.9 mph 32.2 mph 0.00 in Rain , Thunderstorm Light Thunderstorms and Rain
5:52 PM 84.9 °F 30.0 °F 14% 29.46 in 10.0 mi South 24.2 mph 29.9 mph 0.00 in Rain , Thunderstorm Light Rain
6:06 PM 84.9 °F 30.0 °F 14% 29.57 in 9.0 mi WSW 27.6 mph 35.7 mph 0.00 in Rain Light Rain
6:52 PM 86.0 °F 33.1 °F 15% 29.48 in 10.0 mi South 23.0 mph 29.9 mph 0.00 in   Partly Cloudy
7:52 PM 80.1 °F 36.0 °F 20% 29.45 in 10.0 mi SSE 13.8 mph 25.3 mph N/A   Clear
8:52 PM 78.1 °F 36.0 °F 22% 29.45 in 10.0 mi South 16.1 mph - N/A   Clear
9:52 PM 75.0 °F 54.0 °F 48% 29.49 in 10.0 mi SSE 24.2 mph 29.9 mph N/A   Clear
10:52 PM 72.0 °F 57.0 °F 59% 29.53 in 10.0 mi South 21.9 mph 27.6 mph N/A   Clear
11:52 PM 70.0 °F 57.9 °F 65% 29.53 in 10.0 mi South 24.2 mph 32.2 mph N/A   Clear